TimePST,TemperatureF,Dew PointF,Humidity,Sea Level PressureIn,VisibilityMPH,Wind Direction,Wind SpeedMPH,Gust SpeedMPH,PrecipitationIn,Events,Conditions,WindDirDegrees,DateUTC
12:29 AM,75.2,60.8,61,30.15,1.0,WSW,8.1,-,N/A,,Haze,240,2012-12-01 08:29:00
12:38 AM,75.2,60.8,61,30.14,0.5,WSW,8.1,-,N/A,,Haze,240,2012-12-01 08:38:00
12:53 AM,77.0,61.0,58,30.12,0.2,SW,10.4,-,N/A,,Haze,220,2012-12-01 08:53:00
1:45 AM,78.8,-9999,N/A,30.15,2.0,SSW,8.1,-,N/A,,Overcast,210,2012-12-01 09:45:00
1:53 AM,80.1,-9999,N/A,30.12,8.0,SW,9.2,-,N/A,,Overcast,230,2012-12-01 09:53:00
2:04 AM,78.8,-9999,N/A,30.14,1.8,SW,11.5,-,N/A,,Overcast,220,2012-12-01 10:04:00
2:14 AM,78.8,-9999,N/A,30.14,3.0,SW,12.7,-,N/A,,Overcast,220,2012-12-01 10:14:00
2:31 AM,77.0,-9999,N/A,30.13,10.0,SW,11.5,-,N/A,,Overcast,220,2012-12-01 10:31:00
2:53 AM,77.0,60.1,56,30.12,10.0,SW,12.7,-,N/A,,Overcast,220,2012-12-01 10:53:00
3:53 AM,78.1,59.0,52,30.12,10.0,SW,11.5,-,N/A,,Overcast,230,2012-12-01 11:53:00
4:53 AM,77.0,57.9,52,30.11,9.0,WSW,12.7,-,N/A,,Overcast,240,2012-12-01 12:53:00
5:15 AM,75.2,57.2,53,30.14,2.0,WSW,8.1,-,0.00,Rain,Light Rain,240,2012-12-01 13:15:00
5:30 AM,75.2,57.2,53,30.14,4.0,WSW,6.9,-,0.00,Rain,Light Rain,240,2012-12-01 13:30:00
5:53 AM,79.0,60.1,52,30.12,6.0,WSW,8.1,-,0.00,Rain,Light Rain,240,2012-12-01 13:53:00
6:09 AM,78.8,59.0,51,30.14,8.0,SW,11.5,-,0.00,,Overcast,220,2012-12-01 14:09:00
6:53 AM,77.0,60.1,56,30.13,4.0,WSW,9.2,-,0.00,,Haze,240,2012-12-01 14:53:00
7:16 AM,78.8,60.8,54,30.15,6.0,SW,9.2,-,N/A,,Haze,230,2012-12-01 15:16:00
7:30 AM,78.8,60.8,54,30.16,6.0,WSW,6.9,-,N/A,,Haze,240,2012-12-01 15:30:00
7:53 AM,80.1,60.1,50,30.14,9.0,WSW,8.1,-,N/A,,Overcast,250,2012-12-01 15:53:00
8:09 AM,80.6,60.8,51,30.17,7.0,WSW,8.1,-,N/A,,Overcast,240,2012-12-01 16:09:00
8:53 AM,64.2,61.5,91,30.16,7.0,WSW,6.9,-,N/A,,Overcast,240,2012-12-01 16:53:00
9:50 AM,66.2,62.6,88,30.18,7.0,SSW,6.9,-,N/A,,Mostly Cloudy,210,2012-12-01 17:50:00
9:53 AM,66.6,61.9,85,30.16,7.0,SSW,8.1,-,N/A,,Mostly Cloudy,200,2012-12-01 17:53:00
10:05 AM,66.2,62.6,88,30.18,7.0,SW,8.1,-,N/A,,Mostly Cloudy,220,2012-12-01 18:05:00
10:23 AM,68.0,62.6,83,30.18,7.0,SSW,8.1,-,N/A,,Overcast,210,2012-12-01 18:23:00
10:33 AM,68.0,62.6,83,30.19,7.0,SSW,10.4,-,N/A,,Overcast,210,2012-12-01 18:33:00
10:53 AM,66.7,62.6,86,30.16,7.0,SW,8.1,-,N/A,,Overcast,220,2012-12-01 18:53:00
11:22 AM,80.6,60.8,51,30.17,1.8,SW,8.1,-,0.00,Rain,Light Rain,230,2012-12-01 19:22:00
11:49 AM,66.2,62.6,88,30.16,0.2,SW,9.2,-,N/A,Fog,Fog,230,2012-12-01 19:49:00
11:53 AM,65.8,62.4,89,30.14,0.2,SW,9.2,-,N/A,Fog,Fog,220,2012-12-01 19:53:00
12:30 PM,66.2,62.6,88,30.14,2.0,SW,11.5,-,N/A,,Overcast,230,2012-12-01 20:30:00
12:39 PM,66.2,62.6,88,30.14,6.0,SW,11.5,-,N/A,,Overcast,230,2012-12-01 20:39:00
12:53 PM,63.5,58.5,84,30.11,4.0,SW,9.2,-,N/A,,Haze,230,2012-12-01 20:53:00
1:30 PM,64.4,59.0,83,30.11,8.0,SW,11.5,-,N/A,,Overcast,220,2012-12-01 21:30:00
1:53 PM,63.5,58.5,84,30.09,9.0,SW,13.8,-,N/A,,Overcast,220,2012-12-01 21:53:00
2:09 PM,64.4,57.2,77,30.11,7.0,SW,13.8,-,N/A,,Overcast,220,2012-12-01 22:09:00
2:20 PM,64.4,57.2,77,30.11,4.0,SW,12.7,-,N/A,,Haze,230,2012-12-01 22:20:00
2:30 PM,64.4,57.2,77,30.11,1.8,WSW,9.2,-,N/A,,Haze,240,2012-12-01 22:30:00
2:45 PM,64.4,57.2,77,30.11,3.0,SW,13.8,-,N/A,,Haze,230,2012-12-01 22:45:00
2:53 PM,64.8,61.7,90,30.09,5.0,SW,12.7,-,N/A,,Overcast,230,2012-12-01 22:53:00
3:53 PM,64.0,61.5,91,30.09,4.0,SW,13.8,-,N/A,,Overcast,230,2012-12-01 23:53:00
4:21 PM,77.0,60.8,57,30.10,4.0,SW,9.2,-,0.00,,Haze,230,2012-12-02 00:21:00
4:28 PM,78.8,60.8,54,30.10,3.0,SW,11.5,-,0.00,,Haze,230,2012-12-02 00:28:00
4:46 PM,78.8,60.8,54,30.10,1.5,SW,9.2,-,0.00,,Haze,230,2012-12-02 00:46:00
4:53 PM,79.0,60.1,52,30.08,0.5,WSW,10.4,-,0.00,Rain,Light Rain,240,2012-12-02 00:53:00
5:15 PM,78.8,60.8,54,30.10,1.8,WSW,9.2,-,0.00,,Haze,240,2012-12-02 01:15:00
5:43 PM,80.6,60.8,51,30.10,4.0,WSW,9.2,-,0.00,,Haze,240,2012-12-02 01:43:00
5:53 PM,79.0,60.1,52,30.08,4.0,WSW,9.2,-,0.00,,Haze,240,2012-12-02 01:53:00
6:05 PM,78.8,60.8,54,30.10,4.0,WSW,8.1,-,N/A,,Haze,250,2012-12-02 02:05:00
6:53 PM,81.0,60.1,49,30.08,7.0,West,8.1,-,N/A,,Overcast,260,2012-12-02 02:53:00
7:45 PM,80.6,59.0,48,30.11,9.0,WSW,8.1,-,N/A,,Overcast,250,2012-12-02 03:45:00
7:53 PM,81.0,59.0,47,30.08,9.0,West,9.2,-,N/A,,Overcast,260,2012-12-02 03:53:00
8:04 PM,80.6,59.0,48,30.11,9.0,West,9.2,-,N/A,,Overcast,260,2012-12-02 04:04:00
8:09 PM,80.6,59.0,48,30.11,9.0,West,11.5,-,N/A,,Mostly Cloudy,270,2012-12-02 04:09:00
8:16 PM,78.8,59.0,51,30.11,10.0,West,10.4,-,N/A,,Mostly Cloudy,260,2012-12-02 04:16:00
8:29 PM,80.6,59.0,48,30.11,10.0,West,9.2,-,N/A,,Mostly Cloudy,270,2012-12-02 04:29:00
8:53 PM,79.0,57.9,48,30.10,10.0,West,10.4,-,N/A,,Mostly Cloudy,270,2012-12-02 04:53:00
9:43 PM,78.8,57.2,47,30.12,10.0,West,9.2,-,N/A,,Mostly Cloudy,270,2012-12-02 05:43:00
9:50 PM,78.8,57.2,47,30.13,10.0,West,8.1,-,N/A,,Scattered Clouds,270,2012-12-02 05:50:00
9:53 PM,75.9,57.9,54,30.11,10.0,West,8.1,-,N/A,,Scattered Clouds,280,2012-12-02 05:53:00
10:03 PM,77.0,57.2,50,30.12,10.0,West,10.4,-,N/A,,Scattered Clouds,270,2012-12-02 06:03:00
10:23 PM,78.8,57.2,47,30.13,9.0,West,9.2,-,N/A,,Mostly Cloudy,270,2012-12-02 06:23:00
10:48 PM,77.0,57.2,50,30.13,9.0,West,10.4,-,N/A,,Scattered Clouds,270,2012-12-02 06:48:00
10:53 PM,71.1,57.0,61,30.11,9.0,West,11.5,-,N/A,,Partly Cloudy,270,2012-12-02 06:53:00
11:26 PM,71.6,57.2,60,30.13,9.0,West,6.9,-,N/A,,Mostly Cloudy,270,2012-12-02 07:26:00
11:53 PM,69.1,57.0,65,30.10,10.0,SSW,3.5,-,N/A,,Partly Cloudy,210,2012-12-02 07:53:00